Location: Milton Keynes
(52.0316°N, 0.7531°W)
Time: 20:58:01
(UTC+00:00)

GENESIS II - Pass Details

Date: 31 January 2019
Orbit: 487 x 544 km, 64.5° (Epoch: 18 February)

Event Time Altitude Azimuth Distance (km) Brightness Sun altitude
Exits shadow 06:12:56 - 220° (SW) 2,123 7.0 -14.2°
Reaches altitude 10° 06:13:52 10° 219° (SW) 1,747 6.6 -14.1°
Maximum altitude 06:17:47 85° 131° (SE) 535 4.2 -13.5°
Drops below altitude 10° 06:21:49 10° 44° (NE) 1,792 7.4 -12.9°
Sets 06:24:02 0° 44° (NE) 2,695 8.3 -12.5°
